Current weather by "City, St" or "zip code"  
 

Current Conditions: Columbus/West Point/Starkville, Golden Triangle Regional Airport, MS

Overcast


74.0 F

Last Updated on May 21 2022, 4:56 am CDT
Humidity: 91%
Wind Speed: S 13.8 mph
Barometer 29.99 in
Dewpoint: 71.1 F
Visibility: 10.00 mi
Precip: --
Heat Index: NA
Wind Chill: NA
Current conditions at:

Columbus/West Point/Starkville, Golden Triangle Regional Airport, MS (KGTR)

Lat: 33.45 Lon: 88.58333

Local Radar Image active severe weather and emergency alerts image image weather storm and storm spotter reports image weather observation monitoring service image
Local
Radar
Active
Alerts
Storm Reports Obs
Monitoring

Sign-up For Email & Text Message Weather Alert Notification Services



Advertise Here

Observation History for Columbus/West Point/Starkville, Golden Triangle Regional Airport, MS


Time Wind
(mph)
Vis
(mi)
Weather Precip (in) Temperature (F) Relative
Humidity
Wind
Chill
(F)
Heat
Index
(F)
Pressure
Air Dwpt altimeter
(in)
sea level
(mb)
Rmks
4:56 am CDT S 13.8 10.00 Overcast -- 74.0 71.1 91% NA NA 29.99 1016.1
3:56 am CDT S 12.7 10.00 Overcast -- 73.0 70.0 90% NA NA 29.99 1015.9
2:56 am CDT SE 9.2 10.00 Fair -- 73.0 68.0 84% NA NA 29.97 1015.2
1:56 am CDT SE 10.4 10.00 Fair -- 74.0 66.9 79% NA NA 29.96 1015.0
12:56 am CDT S 9.2 10.00 Fair -- 74.0 66.9 79% NA NA 29.95 1014.5
11:56 pm CDT S 8.1 10.00 Fair -- 76.0 66.9 74% NA NA 29.94 1014.2
9:56 pm CDT S 6.9 10.00 Fair -- 78.0 68.0 71% NA NA 29.90 1012.8
8:56 pm CDT S 6.9 10.00 Fair -- 78.0 66.9 69% NA NA 29.87 1011.9
7:56 pm CDT S 8.1 10.00 Fair -- 79.0 66.9 67% NA NA 29.85 1011.4
6:56 pm CDT S 9.2 10.00 Fair -- 85.0 66.9 55% NA 88 29.85 1011.3
4:56 pm CDT S 16.1 10.00 Partly Cloudy -- 89.0 66.9 48% NA 92 29.84 1011.0
3:56 pm CDT S 18.4 10.00 Mostly Cloudy -- 89.0 68.0 50% NA 93 29.85 1011.2
2:56 pm CDT S 18.4 G 21.9 10.00 Fair -- 89.0 68.0 50% NA 93 29.86 1011.5
1:56 pm CDT S 19.6 G 23.0 10.00 Partly Cloudy -- 88.0 68.0 52% NA 92 29.87 1011.8
10:56 am CDT S 15.0 10.00 A Few Clouds -- 83.0 69.1 63% NA 87 29.89 1012.6
9:56 am CDT S 19.6 G 25.3 10.00 Partly Cloudy -- 81.0 71.1 72% NA 85 29.89 1012.7
8:56 am CDT S 11.5 10.00 Mostly Cloudy -- 78.0 72.0 82% NA NA 29.89 1012.6
7:56 am CDT S 11.5 10.00 Mostly Cloudy -- 75.0 71.1 88% NA NA 29.88 1012.2
6:56 am CDT S 10.4 10.00 Overcast -- 72.0 71.1 97% NA NA 29.87 1011.9
4:56 am CDT S 8.1 10.00 Overcast -- 72.0 70.0 94% NA NA 29.82 1010.4

Regional Weather Observation


Monroe County Airport, MS (KM40)

Mostly Cloudy
73.0 F

Columbus/West Point/Starkville, Golden Triangle Regional Airport, MS (KGTR)

Overcast
74.0 F

Columbus Air Force Base, MS (KCBM)

Partly Cloudy
74.0 F

Tupelo, Tupelo Regional Airport, MS (KTUP)

Fair
74.0 F

Winona-Montgomery County Airport, MS (K5A6)

Partly Cloudy
73.0 F

Meridian, Joe Williams Naval Outlying Field, MS (KNJW)

Overcast
75.0 F

Advertise Here


Advertise Here